Theta_e
310 310 310 310 311 311 312 312 312 313 312 312 311 310 310 310 310 312 314 315 317 317 316 316 316 316 316 318 318 318 310 312 314 315 317 316 315 316 317 316 316 317 318 318 318
310 310 310 311 311 311 312 312 312 313 313 313 313 313 312 311 310 311 312 313 315 317 316 315 317 316 316 317 319 316 308 310 311 315 316 316 315 317 316 315 314 317 317 318 317
311 311 311 311 311 312 312 312 312 312 312 313 313 313 312 312 312 313 316 313 313 315 315 315 317 317 316 317 318 315 313 312 316 318 317 316 314 316 314 312 315 317 317 317 317
312 312 312 312 312 312 312 312 312 312 312 312 312 312 312 312 310 315 316 314 314 315 315 314 316 316 315 315 318 316 316 315 317 318 317 314 316 314 315 316 317 317 317 317 317
312 312 312 312 312 313 312 312 312 312 312 312 313 313 312 311 313 314 313 312 312 314 315 314 315 316 314 314 315 315 315 318 318 317 317 316 315 313 315 317 317 317 316 316 316
309 309 309 309 309 310 310 311 312 313 313 313 313 313 312 309 313 314 313 313 314 315 315 314 314 315 315 315 314 314 314 315 315 315 316 315 314 314 316 316 315 315 316 316 316
313 314 314 314 314 314 314 312 310 309 310 312 313 314 313 314 315 315 314 314 313 314 313 313 313 314 314 313 315 315 312 310 311 314 312 314 312 310 316 315 316 316 317 317 317
314 314 314 314 314 315 315 315 315 314 311 308 307 310 311 314 315 315 315 313 313 313 312 312 312 313 314 313 312 312 311 311 310 309 312 313 311 312 316 316 316 318 318 318 318
312 311 310 311 312 312 313 313 314 314 314 311 307 307 310 312 313 314 313 313 313 312 312 312 312 313 312 309 308 307 309 308 310 310 311 310 311 311 315 316 315 317 317 317 317
317 316 314 312 312 312 311 310 311 312 311 309 307 309 308 311 313 314 314 313 313 312 311 311 312 308 307 307 310 308 308 308 309 310 309 310 310 311 315 312 314 315 315 315 316
321 321 320 320 322 319 317 313 311 311 312 312 312 309 311 312 312 314 313 312 311 311 308 310 307 308 310 308 310 308 307 308 308 309 311 310 311 311 313 312 311 311 313 313 314
322 322 321 322 323 321 322 316 311 308 308 311 312 311 311 313 314 314 313 311 311 309 307 309 308 309 308 308 308 309 310 309 310 309 307 308 309 310 309 311 312 312 312 312 313
324 324 324 323 324 322 322 318 311 308 308 311 312 308 310 311 312 313 312 311 309 308 308 310 310 309 308 308 309 308 308 310 310 309 307 307 310 309 308 309 311 311 312 312 313
324 324 324 325 324 322 322 320 310 309 306 307 308 308 308 309 309 310 311 311 309 309 308 308 309 309 308 308 308 311 308 309 310 309 311 309 312 310 309 310 307 311 312 312 314
322 324 325 324 324 324 322 321 310 314 325 312 308 309 310 308 308 308 310 310 308 308 308 307 309 309 309 310 308 310 309 308 308 307 308 309 308 312 309 308 308 309 311 315 316
320 320 321 321 323 323 323 321 312 314 323 312 308 309 309 309 308 308 309 309 308 308 306 307 308 308 308 307 307 308 310 309 305 307 310 309 310 311 308 309 309 309 313 315 316
319 320 320 322 321 321 323 314 321 323 315 316 309 308 308 308 308 306 307 308 307 308 306 306 307 307 308 309 308 309 309 309 309 308 312 307 309 312 311 308 309 310 313 314 313
315 317 318 319 321 322 321 317 324 320 317 314 310 308 310 308 309 307 306 306 305 306 305 307 312 307 306 308 308 307 308 310 308 310 313 307 311 314 309 309 311 308 311 312 313
308 310 313 315 318 319 318 320 322 321 317 318 318 318 312 309 309 308 305 305 305 304 308 306 308 307 305 307 308 306 308 308 309 298 304 311 310 312 308 307 309 309 310 311 312
306 307 308 310 316 318 316 318 319 318 317 318 321 319 318 311 312 311 312 307 308 304 306 309 311 308 305 307 306 306 306 309 307 312 308 311 310 312 311 312 312 308 307 309 311
301 307 307 309 314 314 316 315 315 316 317 318 319 320 319 320 319 319 319 314 308 308 306 310 312 313 310 309 310 306 307 307 308 311 314 316 315 314 312 307 306 304 307 308 310
304 307 308 312 313 313 314 313 314 313 314 316 315 317 318 317 318 318 319 317 315 312 310 309 313 316 314 309 305 307 308 308 311 312 310 313 315 314 313 312 310 311 311 311 312
303 307 308 313 313 313 313 313 313 313 313 314 315 314 314 315 316 315 314 314 314 313 314 311 312 316 315 311 308 311 311 311 311 311 312 313 312 311 311 311 311 311 310 311 311
301 302 306 310 310 311 311 312 313 313 312 313 313 313 312 313 313 314 313 312 310 310 311 312 314 315 315 313 313 311 311 310 313 315 314 313 313 312 311 311 311 311 311 310 307
298 300 302 307 307 309 309 309 310 309 310 311 311 312 312 313 311 311 309 307 305 307 306 308 312 312 311 311 309 310 310 312 314 314 314 314 314 313 312 310 305 301 300 299 299
296 298 298 298 299 302 305 307 307 307 308 308 309 308 306 308 308 306 299 302 302 302 301 302 304 305 306 306 306 308 310 311 310 309 311 312 313 301 296 294 293 293 293 293 293
293 294 296 297 297 297 300 302 301 299 303 301 298 298 300 299 295 295 295 295 297 297 297 299 301 301 303 302 301 301 301 303 305 305 303 306 297 295 293 292 291 292 291 291 292
Wind_Speed
6 7 7 8 8 8 8 9 9 9 9 9 10 10 10 10 11 14 17 12 7 10 7 5 6 7 7 4 4 3 3 3 5 5 4 1 3 4 5 7 8 10 20 13 10
7 8 8 8 8 9 9 9 9 10 10 10 11 12 13 14 16 19 16 13 12 10 9 6 7 7 4 4 5 5 3 7 6 4 4 4 5 11 5 8 10 18 23 24 23
10 10 10 11 11 11 11 11 11 11 11 11 12 13 14 15 19 5 4 5 15 11 9 8 8 8 4 5 7 6 6 5 10 15 9 6 5 11 6 8 21 23 27 26 28
12 13 14 14 14 14 13 14 13 13 13 13 13 14 15 14 6 2 4 8 6 15 14 12 10 6 4 5 10 4 15 13 10 13 7 4 8 6 17 37 32 28 24 24 28
15 15 15 16 16 17 17 16 16 16 15 14 14 14 15 9 18 20 19 16 13 15 19 17 15 9 5 5 4 5 5 15 26 22 23 19 21 12 24 45 38 33 32 31 31
15 15 15 16 16 17 18 18 19 19 18 17 16 15 16 10 14 12 11 12 13 14 17 19 8 14 6 5 5 4 9 15 14 17 14 7 18 3 36 36 31 23 25 29 33
15 16 16 17 17 18 18 18 19 20 21 20 18 17 20 29 21 23 22 20 16 15 17 18 20 7 1 4 6 7 8 9 9 14 10 11 12 11 43 32 31 31 29 28 29
15 15 16 16 17 19 19 19 21 20 19 19 19 19 17 23 23 26 24 24 18 16 17 16 14 13 9 8 4 4 1 5 1 8 4 11 16 19 29 25 29 28 29 28 29
11 12 13 13 15 18 18 19 20 20 19 18 16 14 11 19 23 23 23 22 17 17 15 13 8 8 7 2 4 2 5 8 14 16 5 8 10 13 9 14 25 27 30 37 41
9 10 10 11 13 15 15 17 17 16 15 12 13 6 19 15 13 13 15 16 12 11 8 8 7 3 2 4 9 8 6 6 7 4 5 6 16 14 35 13 28 38 43 48 50
9 10 9 11 13 14 14 11 6 5 7 10 7 9 8 18 16 12 12 15 10 8 6 6 4 10 23 17 6 4 6 8 10 10 3 10 15 16 28 27 25 35 44 50 54
12 13 12 12 12 12 14 7 8 8 12 18 27 29 29 13 8 16 15 13 9 7 7 1 11 21 1 3 8 11 16 14 18 17 5 17 24 20 12 24 38 37 39 44 47
16 15 14 14 13 10 12 11 12 10 5 13 23 19 30 23 17 12 17 10 5 7 10 16 8 13 8 6 7 9 8 17 16 7 6 10 20 15 14 27 40 43 43 46 47
19 17 17 14 12 6 9 12 13 13 3 7 4 3 6 7 4 13 20 10 3 11 6 9 9 10 5 6 13 20 13 14 13 3 11 3 15 7 10 16 10 30 35 37 45
14 13 13 14 11 13 9 9 7 7 7 3 3 1 6 7 4 1 16 9 5 5 4 9 4 4 7 15 10 11 5 7 4 5 5 5 5 1 5 7 14 17 31 35 33
18 17 16 16 15 12 12 8 3 3 8 5 2 1 3 2 1 2 3 6 3 3 5 11 0 6 8 6 10 1 1 2 4 3 10 13 10 3 6 8 5 7 23 26 30
18 17 17 17 16 13 11 5 2 6 1 4 2 3 1 3 3 3 3 5 5 2 4 2 5 4 6 4 2 5 3 4 4 1 11 6 7 15 7 8 8 11 27 27 25
17 15 17 18 16 12 12 2 9 6 6 2 2 1 6 8 4 2 2 4 4 1 0 3 13 7 5 9 8 8 11 6 8 8 17 5 13 14 8 12 17 7 11 14 20
20 21 22 21 17 16 7 6 5 3 4 4 5 4 4 3 5 3 5 5 7 12 8 4 9 2 4 2 8 3 6 5 1 2 1 10 18 19 6 7 1 6 3 7 17
24 23 29 21 17 20 5 18 9 7 4 3 5 7 5 3 5 5 2 3 4 9 1 2 12 4 0 2 3 7 2 2 1 3 9 15 10 18 15 19 19 6 7 12 25
16 7 11 11 22 14 10 9 9 23 16 6 7 12 14 10 9 6 2 2 3 1 5 4 3 10 5 6 10 1 4 5 1 5 14 18 15 26 18 10 6 7 16 21 30
5 3 5 17 11 7 14 10 8 20 19 9 6 17 22 18 15 13 13 9 8 2 6 9 2 11 12 5 5 4 7 7 9 9 11 17 21 28 28 20 16 27 28 29 31
4 6 7 21 7 12 7 7 19 20 15 4 10 7 7 15 10 14 17 22 27 9 7 6 5 10 12 4 1 6 12 15 17 16 22 21 18 15 23 31 35 28 23 31 35
2 3 7 18 22 8 13 19 17 13 13 16 13 14 16 18 17 12 15 5 9 7 14 2 17 19 18 21 15 10 8 11 18 13 20 21 27 23 25 28 30 51 31 29 22
5 4 4 2 10 14 15 11 16 12 9 12 4 10 12 11 15 16 12 6 4 6 3 2 7 8 11 10 13 20 22 25 28 26 24 23 27 24 26 22 22 30 30 30 31
3 2 4 8 11 6 6 16 19 22 16 16 15 9 2 3 3 2 4 1 3 4 5 2 6 13 21 24 20 21 17 17 18 18 21 24 30 18 22 28 29 25 30 28 28
6 9 5 7 2 1 5 8 1 6 2 7 8 3 4 1 5 10 12 16 15 12 10 6 5 6 21 23 21 16 23 23 23 17 13 13 8 12 17 20 29 16 28 30 32
Wind_Direction
320 323 328 333 336 336 337 339 341 341 341 340 336 331 325 315 299 282 271 266 256 234 237 230 209 207 207 211 204 175 63 249 250 187 252 226 229 240 255 248 229 224 240 253 262
303 308 312 314 315 316 319 321 322 322 324 324 323 321 321 318 309 294 287 255 239 233 231 230 210 198 198 206 196 161 150 229 219 227 246 273 234 265 264 249 245 249 252 255 260
295 297 299 301 303 305 306 306 306 307 308 310 313 314 315 317 317 310 4 243 233 232 230 220 209 207 220 212 205 185 214 218 256 249 271 267 256 253 229 264 242 247 271 263 252
289 292 294 294 294 294 294 294 294 294 297 299 301 304 306 308 296 331 305 306 261 233 224 217 208 195 210 211 218 217 243 237 264 271 275 247 277 243 235 260 275 278 277 262 256
286 288 289 289 290 290 289 287 286 286 288 290 293 296 299 282 266 285 287 285 268 237 230 220 213 207 201 217 227 232 257 256 264 267 270 275 263 255 265 279 281 276 269 262 259
285 286 287 288 288 286 285 283 282 280 280 281 284 288 289 262 274 281 281 276 258 243 234 223 225 229 277 233 196 288 275 276 280 267 257 240 274 265 275 286 283 276 270 266 262
283 285 286 288 289 288 287 285 282 278 275 273 271 272 270 263 275 277 275 270 256 247 241 240 235 230 254 294 276 284 312 305 228 254 231 215 289 225 272 276 275 278 279 277 273
285 286 288 289 289 289 288 286 282 280 276 273 266 264 257 272 267 264 258 254 250 243 239 243 239 245 257 272 316 337 305 319 294 136 234 166 263 260 268 264 269 275 282 280 280
297 295 297 295 294 294 295 290 288 283 276 269 262 241 261 258 254 256 250 244 244 240 234 236 216 219 242 114 8 298 241 225 298 201 153 186 252 270 287 251 266 270 279 279 278
311 316 319 313 313 311 313 302 292 284 272 257 234 223 241 242 247 246 239 230 224 213 200 188 184 168 46 116 235 217 221 246 235 287 174 218 245 271 279 265 263 277 281 280 278
307 314 325 326 331 331 335 335 315 287 252 223 227 221 262 235 245 243 223 202 185 178 175 188 141 207 221 204 235 193 227 234 255 264 225 236 251 254 268 278 261 268 273 274 277
303 310 319 321 328 330 343 11 345 307 298 267 257 251 251 258 237 219 206 179 177 197 127 84 216 224 237 162 219 235 254 261 270 265 207 269 265 266 255 260 264 263 264 268 273
295 300 305 309 318 316 339 346 338 327 269 277 250 251 248 247 237 232 204 199 174 171 202 224 219 222 207 217 242 224 227 255 264 306 237 280 275 249 250 248 262 265 259 267 269
274 280 287 298 304 303 327 337 340 343 326 272 259 239 222 182 243 215 194 210 212 223 211 246 240 209 168 213 212 264 220 254 263 341 277 3 297 257 238 249 230 260 271 267 279
291 291 287 293 282 301 304 319 334 357 296 251 202 214 177 192 131 177 197 188 210 208 166 244 198 165 194 228 167 253 180 221 200 200 315 179 254 228 170 246 251 253 260 274 280
275 281 282 285 278 300 278 281 310 63 252 302 158 83 99 309 313 107 166 181 140 220 233 255 293 178 219 207 181 48 43 70 57 122 263 199 207 343 166 218 273 276 271 280 284
272 268 265 269 272 279 275 239 213 220 18 241 218 165 169 225 274 183 172 181 179 250 249 323 221 235 189 248 140 129 72 307 315 9 254 177 211 248 266 225 211 248 276 297 308
278 269 263 257 263 268 267 252 238 186 223 319 103 118 194 163 237 157 115 270 247 155 249 259 291 189 171 199 196 186 166 178 230 263 282 124 260 275 229 237 249 307 307 329 354
277 273 265 262 257 251 223 246 221 180 220 253 312 272 245 247 190 139 212 231 217 181 200 207 263 227 199 172 161 178 176 199 288 11 331 263 275 288 260 294 349 302 326 332 354
272 272 265 262 241 233 201 240 241 211 158 249 229 191 197 191 183 173 245 177 249 198 271 313 296 211 331 201 194 176 180 61 360 208 257 273 273 263 283 286 284 254 279 308 325
266 269 262 233 213 203 231 237 255 242 251 247 260 263 260 261 240 235 237 282 249 185 191 95 263 259 349 204 231 163 228 200 201 197 248 261 266 268 273 266 243 269 287 305 318
203 232 230 196 201 217 233 226 244 255 265 258 263 259 265 274 258 263 252 216 226 187 209 202 271 256 255 250 176 169 230 210 233 251 236 253 253 279 280 286 267 277 289 297 299
231 263 243 207 230 229 242 244 243 251 247 238 241 221 261 270 277 248 261 261 257 234 224 190 219 279 288 278 302 198 228 234 244 262 260 263 265 269 291 293 287 291 287 293 300
286 292 236 221 235 248 249 251 250 240 245 238 251 260 270 267 256 266 275 282 342 299 301 198 256 252 258 266 297 287 258 248 240 250 256 257 270 269 273 281 294 300 331 350 6
200 245 278 256 248 253 253 269 278 272 236 243 242 244 252 264 275 273 290 317 342 357 24 356 273 272 289 300 311 312 303 288 271 266 262 271 278 284 281 310 355 3 6 18 14
219 267 315 299 304 283 240 248 262 271 272 265 264 302 302 263 243 137 25 101 232 325 16 13 281 309 288 286 283 276 272 273 281 283 277 277 276 11 15 11 8 12 12 7 0
230 254 284 257 278 286 256 259 46 1 357 63 80 356 295 67 310 291 263 251 250 265 270 259 259 272 275 281 299 280 262 271 273 279 321 302 10 3 5 358 343 16 1 350 344